GW0329 Weather Reports


Display with metric or nautical units.
time (UTC)temp
F
wind
direction
speed
MPH
gust
MPH
rain 1hr
in
rain 24hr
in
rain mn
in
humidity
%
barometer
mb
20260504022225 47 356 0.0 1.0 0.00 0.00 0.00 58 1012.9
20260504021723 48 342 0.0 1.0 0.00 0.00 0.00 58 1012.6
20260504021220 48 288 0.0 2.0 0.00 0.00 0.00 55 1012.6
20260504020717 48 173 2.0 3.0 0.00 0.00 0.00 55 1012.8
20260504020214 48 180 1.0 2.0 0.00 0.00 0.00 55 1012.6
20260504015710 48 319 0.0 0.0 0.00 0.00 0.00 56 1012.6
20260504015206 48 305 0.0 0.0 0.00 0.00 0.00 55 1012.6
20260504014702 48 305 0.0 0.0 0.00 0.00 0.00 54 1012.7
20260504014159 48 143 0.0 0.0 0.00 0.00 0.00 54 1012.6
20260504013657 49 327 0.0 0.0 0.00 0.00 0.00 54 1012.7
20260504013153 49 351 0.0 0.0 0.00 0.00 0.00 54 1012.5
20260504012650 49 200 0.0 0.0 0.00 0.00 0.00 53 1012.7
20260504012148 49 323 0.0 0.0 0.00 0.00 0.00 53 1012.4
20260504011645 50 332 0.0 1.0 0.00 0.00 0.00 52 1012.6
20260504011142 50 216 0.0 0.0 0.00 0.00 0.00 52 1012.6
20260504010637 51 135 0.0 0.0 0.00 0.00 0.00 50 1012.7
20260504010133 51 187 0.0 1.0 0.00 0.00 0.00 48 1012.6
20260504005631 52 234 0.0 0.0 0.00 0.00 0.00 48 1012.6
20260504005127 52 166 0.0 2.0 0.00 0.00 0.00 46 1012.5
20260504004626 53 178 0.0 2.0 0.00 0.00 0.00 47 1012.5
20260504004122 53 218 2.0 3.0 0.00 0.00 0.00 45 1012.5
20260504003619 54 226 0.0 3.0 0.00 0.00 0.00 44 1012.4
20260504003115 54 255 2.0 4.0 0.00 0.00 0.00 44 1012.3
20260504002612 54 254 3.0 10.0 0.00 0.00 0.00 43 1012.4
20260504002110 54 217 4.0 7.0 0.00 0.00 0.00 43 1012.5
20260504001608 55 240 5.0 6.0 0.00 0.00 0.00 43 1012.4
20260504001103 55 226 6.0 8.0 0.00 0.00 0.00 42 1012.5
20260504000600 55 245 4.0 10.0 0.00 0.00 0.00 42 1012.6
20260504000058 55 252 2.0 4.0 0.00 0.00 0.00 42 1012.6
20260503235556 55 246 8.0 14.0 0.00 0.00 0.00 41 1012.5
20260503235053 55 233 4.0 13.0 0.00 0.00 0.00 42 1012.6
20260503234550 56 236 2.0 12.0 0.00 0.00 0.00 41 1012.6
20260503234048 56 238 5.0 5.0 0.00 0.00 0.00 42 1012.7
20260503233544 56 233 2.0 6.0 0.00 0.00 0.00 41 1012.8
20260503233040 56 250 8.0 9.0 0.00 0.00 0.00 40 1012.7
20260503232538 56 217 4.0 7.0 0.00 0.00 0.00 40 1012.7
20260503232035 56 250 6.0 7.0 0.00 0.00 0.00 41 1012.7
20260503231533 57 237 6.0 11.0 0.00 0.00 0.00 40 1012.7
20260503231029 57 234 6.0 13.0 0.00 0.00 0.00 39 1012.6
20260503230526 57 252 6.0 15.0 0.00 0.00 0.00 38 1012.6
20260503230024 57 225 4.0 9.0 0.00 0.00 0.00 40 1012.7
20260503225520 57 259 3.0 15.0 0.00 0.00 0.00 39 1012.8
20260503225015 57 228 6.0 12.0 0.00 0.00 0.00 39 1012.8
20260503224513 57 207 7.0 17.0 0.00 0.00 0.00 39 1012.7
20260503224011 57 256 10.0 17.0 0.00 0.00 0.00 38 1012.7
20260503223509 58 257 6.0 11.0 0.00 0.00 0.00 40 1012.7
20260503223004 58 250 8.0 11.0 0.00 0.00 0.00 37 1012.9
20260503222502 57 299 9.0 13.0 0.00 0.00 0.00 38 1012.9
20260503222000 58 254 10.0 13.0 0.00 0.00 0.00 37 1012.8
20260503221458 58 196 7.0 11.0 0.00 0.00 0.00 37 1012.8
20260503220955 58 243 4.0 13.0 0.00 0.00 0.00 39 1012.9
20260503220451 59 231 8.0 10.0 0.00 0.00 0.00 37 1012.8
20260503215948 58 226 3.0 8.0 0.00 0.00 0.00 39 1013.0
20260503215445 58 215 6.0 11.0 0.00 0.00 0.00 37 1012.9
20260503214943 58 237 9.0 13.0 0.00 0.00 0.00 36 1013.0
20260503214440 59 196 13.0 16.0 0.00 0.00 0.00 35 1012.9
20260503213937 60 227 6.0 10.0 0.00 0.00 0.00 37 1012.9
20260503213436 60 225 7.0 14.0 0.00 0.00 0.00 38 1012.7
20260503212931 59 212 6.0 14.0 0.00 0.00 0.00 37 1012.6
20260503212429 59 226 9.0 11.0 0.00 0.00 0.00 36 1012.8
20260503211926 59 211 7.0 14.0 0.00 0.00 0.00 35 1012.5
20260503211423 60 243 5.0 6.0 0.00 0.00 0.00 40 1012.6
20260503210918 59 265 4.0 7.0 0.00 0.00 0.00 38 1012.7
20260503210416 58 232 6.0 8.0 0.00 0.00 0.00 41 1012.7
20260503205910 59 269 7.0 13.0 0.00 0.00 0.00 36 1012.6
20260503205408 59 202 6.0 11.0 0.00 0.00 0.00 37 1012.6
20260503204903 59 228 7.0 10.0 0.00 0.00 0.00 36 1012.7
20260503204400 60 244 14.0 18.0 0.00 0.00 0.00 34 1012.8
20260503203858 59 218 13.0 21.0 0.00 0.00 0.00 35 1013.0
20260503203355 59 250 9.0 15.0 0.00 0.00 0.00 35 1012.9
20260503202852 59 208 7.0 11.0 0.00 0.00 0.00 37 1013.1
20260503202350 59 239 4.0 12.0 0.00 0.00 0.00 39 1012.9
20260503201849 58 223 6.0 9.0 0.00 0.00 0.00 38 1013.2
20260503201345 58 180 4.0 13.0 0.00 0.00 0.00 37 1013.3
20260503200843 59 241 9.0 15.0 0.00 0.00 0.00 38 1013.5
20260503200338 59 226 11.0 15.0 0.00 0.00 0.00 37 1013.2
20260503195836 59 225 9.0 18.0 0.00 0.00 0.00 37 1013.5
20260503195332 59 188 3.0 7.0 0.00 0.00 0.00 36 1013.6
20260503194830 58 183 3.0 8.0 0.00 0.00 0.00 36 1013.7
20260503194325 59 189 7.0 9.0 0.00 0.00 0.00 35 1013.6
20260503193822 58 204 4.0 10.0 0.00 0.00 0.00 38 1013.8
20260503193318 58 236 9.0 14.0 0.00 0.00 0.00 36 1013.9
20260503192814 59 226 5.0 9.0 0.00 0.00 0.00 38 1013.9
20260503192309 59 222 11.0 16.0 0.00 0.00 0.00 36 1014.0
20260503191806 59 249 4.0 13.0 0.00 0.00 0.00 37 1014.1
20260503191303 58 191 4.0 6.0 0.00 0.00 0.00 39 1014.1
20260503190800 59 285 7.0 10.0 0.00 0.00 0.00 37 1014.2
20260503190256 59 259 10.0 14.0 0.00 0.00 0.00 37 1014.4
20260503185754 59 255 9.0 20.0 0.00 0.00 0.00 37 1014.4
20260503185249 59 225 7.0 15.0 0.00 0.00 0.00 38 1014.4
20260503184744 58 224 8.0 11.0 0.00 0.00 0.00 39 1014.5
20260503184241 57 272 5.0 14.0 0.00 0.00 0.00 36 1014.9
20260503183737 59 278 7.0 15.0 0.00 0.00 0.00 35 1014.6
20260503183235 59 255 11.0 15.0 0.00 0.00 0.00 38 1014.6
20260503182733 59 225 13.0 17.0 0.00 0.00 0.00 40 1014.6
20260503182232 58 236 9.0 25.0 0.00 0.00 0.00 41 1014.7
20260503181728 57 202 10.0 16.0 0.00 0.00 0.00 38 1014.7
20260503181225 58 213 8.0 15.0 0.00 0.00 0.00 39 1014.7
20260503180721 58 248 5.0 18.0 0.00 0.00 0.00 39 1014.9
20260503180220 58 255 4.0 14.0 0.00 0.00 0.00 41 1015.0
20260503175716 56 229 11.0 12.0 0.00 0.00 0.00 41 1014.7
20260503175214 57 269 6.0 8.0 0.00 0.00 0.00 39 1015.0
20260503174709 57 225 8.0 15.0 0.00 0.00 0.00 42 1015.0
20260503174207 57 249 13.0 15.0 0.00 0.00 0.00 43 1015.4
20260503173708 57 207 7.0 10.0 0.00 0.00 0.00 43 1015.2
20260503173204 56 230 14.0 19.0 0.00 0.00 0.00 39 1015.5
20260503172701 56 215 9.0 10.0 0.00 0.00 0.00 40 1015.5
20260503172158 56 245 7.0 15.0 0.00 0.00 0.00 40 1015.4
20260503171654 56 227 9.0 19.0 0.00 0.00 0.00 40 1015.5
20260503171152 56 217 12.0 14.0 0.00 0.00 0.00 44 1015.6
20260503170648 57 208 14.0 21.0 0.00 0.00 0.00 38 1015.7
20260503170145 57 272 8.0 13.0 0.00 0.00 0.00 41 1015.9
20260503160107 53 223 14.0 17.0 0.00 0.00 0.00 40 1016.3
20260503150537 51 231 4.0 10.0 0.00 0.00 0.00 43 1016.5
20260503130927 45 285 4.0 11.0 0.00 0.00 0.00 63 1016.9
20260503130425 44 215 5.0 8.0 0.00 0.00 0.00 67 1016.9
20260503110823 32 100 0.0 1.0 0.00 0.00 0.00 99 1016.1
20260503110320 31 64 0.0 0.0 0.00 0.00 0.00 98 1016.0
20260503100246 30 44 0.0 0.0 0.00 0.00 0.00 98 1015.5
20260503090206 31 356 0.0 1.0 0.00 0.00 0.00 97 1015.6
20260503081636 31 326 0.0 2.0 0.00 0.00 0.00 96 1015.4
20260503081132 31 325 0.0 1.0 0.00 0.00 0.00 95 1015.4
20260503080628 32 346 0.0 0.0 0.00 0.00 0.00 96 1015.5
20260503080126 32 346 0.0 0.0 0.00 0.00 0.00 96 1015.7
20260503072602 33 342 0.0 1.0 0.00 0.00 0.00 95 1015.5
20260503072100 33 177 0.0 0.0 0.00 0.00 0.00 94 1015.3
20260503071556 33 335 0.0 0.0 0.00 0.00 0.00 94 1015.4
20260503071053 33 335 0.0 0.0 0.00 0.00 0.00 94 1015.4
20260503070549 34 335 0.0 0.0 0.00 0.00 0.00 94 1015.4
20260503055009 33 9 0.0 0.0 0.00 0.00 0.00 96 1015.4
20260503054504 32 173 0.0 0.0 0.00 0.00 0.00 96 1015.6
20260503054002 32 27 0.0 0.0 0.00 0.00 0.00 96 1015.4
20260503053500 32 27 0.0 0.0 0.00 0.00 0.00 96 1015.6
20260503052956 32 305 0.0 0.0 0.00 0.00 0.00 96 1015.7
20260503052454 32 305 0.0 0.0 0.00 0.00 0.00 96 1015.7
20260503051950 32 305 0.0 0.0 0.00 0.00 0.00 96 1015.8
20260503051446 32 305 0.0 1.0 0.00 0.00 0.00 96 1015.6
20260503050943 32 333 0.0 0.0 0.00 0.00 0.00 96 1015.7
20260503050439 32 333 0.0 0.0 0.00 0.00 0.00 95 1015.6
20260503045937 32 333 0.0 0.0 0.00 0.00 0.00 95 1015.6
20260503045435 32 338 1.0 1.0 0.00 0.00 0.00 95 1015.6
20260503044931 32 342 2.0 2.0 0.00 0.00 0.00 95 1015.8
20260503044428 32 214 0.0 1.0 0.00 0.00 0.00 95 1015.6
20260503043925 32 297 0.0 0.0 0.02 0.00 0.00 94 1015.6
20260503043421 32 314 0.0 1.0 0.02 0.00 0.00 94 1015.6
20260503042918 32 333 0.0 0.0 0.00 0.00 0.00 94 1015.7
20260503042415 32 333 0.0 0.0 0.00 0.00 0.00 94 1015.8
20260503041911 32 333 0.0 0.0 0.00 0.00 0.00 93 1015.7
20260503041408 32 333 0.0 0.0 0.00 0.00 0.00 93 1015.8
20260503040906 32 333 0.0 1.0 0.00 0.00 0.00 92 1016.0
20260503040403 33 353 1.0 1.0 0.00 0.00 0.00 92 1015.8
20260503035900 33 27 0.0 0.0 0.00 0.03 0.03 92 1016.1
20260503035357 33 27 0.0 0.0 0.00 0.03 0.03 92 1015.7
20260503034854 33 14 1.0 1.0 0.00 0.03 0.03 91 1015.8
20260503034352 33 14 0.0 1.0 0.00 0.03 0.03 90 1015.8
20260503033849 33 220 0.0 0.0 0.00 0.03 0.03 90 1015.9
20260503033346 34 312 0.0 0.0 0.00 0.03 0.03 89 1015.9
20260503032844 34 312 1.0 1.0 0.00 0.03 0.03 88 1015.9
20260503032343 35 321 0.0 1.0 0.00 0.03 0.03 88 1015.8
20260503031840 35 216 0.0 1.0 0.00 0.03 0.03 87 1015.9
20260503031337 35 200 0.0 0.0 0.00 0.03 0.03 85 1015.9
20260503030833 36 331 0.0 1.0 0.00 0.03 0.03 82 1015.8
20260503030330 36 345 0.0 2.0 0.00 0.03 0.03 82 1015.9
20260503025827 36 1 1.0 2.0 0.00 0.03 0.03 82 1015.8
20260503025324 36 16 1.0 1.0 0.00 0.03 0.03 81 1015.8
20260503024821 37 291 0.0 1.0 0.00 0.03 0.03 79 1015.9
20260503024318 37 305 0.0 2.0 0.00 0.03 0.03 78 1016.1
20260503023815 37 336 1.0 1.0 0.00 0.03 0.03 79 1016.0
20260503023312 38 308 0.0 2.0 0.00 0.03 0.03 77 1016.1
20260503022808 38 318 1.0 2.0 0.00 0.03 0.03 76 1016.0